TOMORROW-S3 (62392 NORAD) Tracking and Keplerian Element Data

This shows tracking and keplerian element data for the satellite.

Feedback or suggestion? Click here.




ElementValue
Catalog62392
NameTOMORROW-S3
Epoch Orbit680
Epoch Day34.27709851
Epoch Year2025
RAAN125.1284
Inclination44.9965
Eccentricity0.0003261
Argument of Perigee332.6832
Mean Anonmoly27.3876
Mean Motion15.19223699
Decay Rate0.00028199
L11 62392U 24247R 25034.27709851 .00028199 00000+0 13231-2 0 9994
L22 62392 44.9965 125.1284 0003261 332.6832 27.3876 15.19223699 6807



Live tracking and technical data element details for TOMORROW-S3 (NORAD 62392). TOMORROW-S3 can be tracked NOW for your location showing map with azimuth and elevation plus other details from your city location.







IsCatalogInMostPopularTable: catalog: 62392, numindb: 18
Update: records affected: 1



GetName: 62392 TOMORROW-S3

Hit Count: updated at: Mon, 19 May 2025 03:13:39 GMT